Location: Amsterdam
(30.7274°N, 84.4357°W)
Time: 18:34:45
(UTC+00:00)

Altair - Pass Details

Date: 08 August 2024
Orbit: 1501 x 1682 km, 47.2° (Epoch: 07 September)

Event Time Altitude Azimuth Distance (km) Brightness Sun altitude
Rises 15:10:50 0° 184° (S) 4,914 10.2 52.2°
Reaches altitude 10° 15:15:04 10° 169° (S) 3,916 10.0 53.1°
Maximum altitude 15:21:59 21° 125° (SE) 3,084 10.1 54.5°
Drops below altitude 10° 15:28:46 10° 81° (E) 3,848 10.3 55.9°
Sets 15:32:49 0° 66° (ENE) 4,806 10.4 56.7°
